• în Republica Moldova
  • Lista ţărilor
  • Pe 7 zile
  • Temperatura apei
  • Hartă satelitară
  • Meteo pe hartă
  • Widget-uri
  • user-avatar
    Intrare

    Meteo pe oră la Luanda

    Astăzi, 17 Ianuarie, Marţi

    Timp Temperatura Precipitaţii Vânt Presiune Umiditate
    00:00 +26°C° 0 mm 3 m/s 752 mmHg 85%
    01:00 +26°C° 0 mm 2 m/s 752 mmHg 87%
    02:00 +26°C° 0 mm 2 m/s 752 mmHg 88%
    03:00 +26°C° 0 mm 3 m/s 751 mmHg 88%
    04:00 +25°C° 0 mm 3 m/s 751 mmHg 89%
    05:00 +26°C° 0 mm 2 m/s 752 mmHg 87%
    06:00 +26°C° 0 mm 2 m/s 752 mmHg 84%
    07:00 +26°C° 0 mm 2 m/s 752 mmHg 82%
    08:00 +29°C° 0 mm 2 m/s 752 mmHg 69%
    09:00 +32°C° 0 mm 1 m/s 752 mmHg 56%
    10:00 +35°C° 0 mm 1 m/s 752 mmHg 43%
    11:00 +37°C° 0 mm 2 m/s 752 mmHg 40%
    12:00 +37°C° 0 mm 3 m/s 751 mmHg 38%
    13:00 +38°C° 0 mm 4 m/s 751 mmHg 35%
    14:00 +37°C° 0 mm 5 m/s 751 mmHg 40%
    15:00 +36°C° 0 mm 5 m/s 750 mmHg 44%
    16:00 +34°C° 0 mm 6 m/s 749 mmHg 49%
    17:00 +33°C° 0 mm 6 m/s 750 mmHg 56%
    18:00 +30°C° 0 mm 5 m/s 750 mmHg 64%
    19:00 +28°C° 0 mm 5 m/s 751 mmHg 72%
    20:00 +28°C° 0 mm 4 m/s 752 mmHg 75%
    21:00 +27°C° 0 mm 4 m/s 752 mmHg 79%
    22:00 +27°C° 0 mm 4 m/s 753 mmHg 82%
    23:00 +27°C° 0 mm 4 m/s 753 mmHg 82%

    Mâine, 18 Ianuarie, Miercuri

    Timp Temperatura Precipitaţii Vânt Presiune Umiditate
    00:00 +27°C° 0 mm 3 m/s 753 mmHg 83%
    01:00 +27°C° 0 mm 3 m/s 753 mmHg 83%
    02:00 +27°C° 0 mm 3 m/s 752 mmHg 82%
    03:00 +27°C° 0 mm 3 m/s 752 mmHg 80%
    04:00 +27°C° 0 mm 3 m/s 752 mmHg 79%
    05:00 +27°C° 0 mm 3 m/s 752 mmHg 78%
    06:00 +27°C° 0 mm 3 m/s 753 mmHg 76%
    07:00 +27°C° 0 mm 3 m/s 753 mmHg 75%
    08:00 +29°C° 0 mm 3 m/s 753 mmHg 68%
    09:00 +30°C° 0 mm 2 m/s 753 mmHg 61%
    10:00 +32°C° 0 mm 2 m/s 754 mmHg 53%
    11:00 +34°C° 0 mm 3 m/s 753 mmHg 48%
    12:00 +36°C° 0 mm 3 m/s 753 mmHg 42%
    13:00 +37°C° 0 mm 4 m/s 752 mmHg 36%
    14:00 +36°C° 0 mm 4 m/s 752 mmHg 44%
    15:00 +34°C° 0 mm 4 m/s 751 mmHg 51%
    16:00 +33°C° 0 mm 5 m/s 751 mmHg 58%
    17:00 +32°C° 0 mm 4 m/s 751 mmHg 62%
    18:00 +29°C° 0 mm 4 m/s 752 mmHg 66%
    19:00 +28°C° 0 mm 3 m/s 752 mmHg 70%
    20:00 +28°C° 0 mm 3 m/s 753 mmHg 71%
    21:00 +28°C° 0 mm 3 m/s 753 mmHg 72%
    22:00 +28°C° 0 mm 3 m/s 753 mmHg 73%
    23:00 +27°C° 0 mm 2 m/s 753 mmHg 75%

    Poimâine, 19 Ianuarie, Joi

    Timp Temperatura Precipitaţii Vânt Presiune Umiditate
    00:00 +27°C° 0 mm 2 m/s 753 mmHg 76%
    01:00 +26°C° 0 mm 2 m/s 752 mmHg 78%
    02:00 +26°C° 0 mm 2 m/s 752 mmHg 78%
    03:00 +26°C° 0 mm 2 m/s 752 mmHg 79%
    04:00 +26°C° 0 mm 2 m/s 751 mmHg 79%
    05:00 +26°C° 0 mm 3 m/s 752 mmHg 78%
    06:00 +26°C° 0 mm 3 m/s 752 mmHg 77%
    07:00 +26°C° 0 mm 3 m/s 753 mmHg 76%
    08:00 +28°C° 0 mm 3 m/s 753 mmHg 69%
    09:00 +29°C° 0 mm 2 m/s 753 mmHg 61%
    10:00 +31°C° 0 mm 2 m/s 754 mmHg 54%
    11:00 +34°C° 0 mm 2 m/s 753 mmHg 48%
    12:00 +35°C° 0 mm 2 m/s 753 mmHg 41%
    13:00 +37°C° 0 mm 3 m/s 752 mmHg 35%
    14:00 +36°C° 0 mm 3 m/s 751 mmHg 38%
    15:00 +36°C° 0 mm 4 m/s 751 mmHg 41%
    16:00 +35°C° 0 mm 4 m/s 751 mmHg 44%
    17:00 +33°C° 0 mm 4 m/s 751 mmHg 52%
    18:00 +30°C° 0 mm 4 m/s 751 mmHg 60%
    19:00 +29°C° 0 mm 4 m/s 752 mmHg 68%
    20:00 +28°C° 0 mm 3 m/s 752 mmHg 71%
    21:00 +28°C° 0 mm 3 m/s 753 mmHg 75%
    22:00 +27°C° 0 mm 3 m/s 753 mmHg 78%
    23:00 +27°C° 0 mm 2 m/s 753 mmHg 80%

    20 Ianuarie, Vineri

    Timp Temperatura Precipitaţii Vânt Presiune Umiditate
    00:00 +27°C° 0 mm 2 m/s 753 mmHg 82%
    01:00 +26°C° 0 mm 2 m/s 752 mmHg 85%
    02:00 +26°C° 0 mm 2 m/s 752 mmHg 86%
    03:00 +26°C° 0 mm 2 m/s 752 mmHg 87%
    04:00 +25°C° 0 mm 2 m/s 752 mmHg 89%
    05:00 +26°C° 0 mm 2 m/s 752 mmHg 87%
    06:00 +26°C° 0 mm 1 m/s 753 mmHg 84%
    07:00 +27°C° 0 mm 1 m/s 754 mmHg 82%
    08:00 +29°C° 0 mm 1 m/s 754 mmHg 71%
    09:00 +31°C° 0 mm 1 m/s 754 mmHg 61%
    10:00 +33°C° 0 mm 1 m/s 754 mmHg 51%
    11:00 +35°C° 0 mm 2 m/s 753 mmHg 47%
    12:00 +37°C° 0 mm 2 m/s 753 mmHg 43%
    13:00 +38°C° 0 mm 3 m/s 752 mmHg 39%
    14:00 +37°C° 0 mm 4 m/s 751 mmHg 43%
    15:00 +36°C° 0 mm 4 m/s 751 mmHg 46%
    16:00 +35°C° 0 mm 5 m/s 750 mmHg 50%
    17:00 +33°C° 0 mm 5 m/s 751 mmHg 57%
    18:00 +30°C° 0 mm 5 m/s 751 mmHg 64%
    19:00 +29°C° 0 mm 5 m/s 752 mmHg 71%
    20:00 +28°C° 0 mm 4 m/s 752 mmHg 75%
    21:00 +28°C° 0 mm 4 m/s 753 mmHg 78%
    22:00 +27°C° 0 mm 4 m/s 753 mmHg 81%
    23:00 +27°C° 0 mm 3 m/s 753 mmHg 83%

    21 Ianuarie, Sâmbătă

    Timp Temperatura Precipitaţii Vânt Presiune Umiditate
    00:00 +27°C° 0 mm 3 m/s 752 mmHg 84%
    01:00 +27°C° 0 mm 3 m/s 752 mmHg 86%
    02:00 +27°C° 0 mm 3 m/s 752 mmHg 86%
    03:00 +26°C° 0 mm 3 m/s 752 mmHg 87%
    04:00 +26°C° 0 mm 3 m/s 751 mmHg 87%
    05:00 +27°C° 0 mm 2 m/s 752 mmHg 86%
    06:00 +27°C° 0 mm 2 m/s 752 mmHg 84%
    07:00 +27°C° 0 mm 2 m/s 753 mmHg 83%
    08:00 +28°C° 0 mm 1 m/s 753 mmHg 77%
    09:00 +29°C° 0 mm 1 m/s 754 mmHg 71%
    10:00 +28°C° 0 mm 0 m/s 754 mmHg 64%
    11:00 +31°C° 0 mm 1 m/s 753 mmHg 59%
    12:00 +34°C° 0 mm 2 m/s 753 mmHg 53%
    13:00 +35°C° 0 mm 2 m/s 752 mmHg 47%
    14:00 +35°C° 0 mm 3 m/s 751 mmHg 48%
    15:00 +35°C° 0 mm 4 m/s 751 mmHg 49%
    16:00 +35°C° 0 mm 4 m/s 750 mmHg 50%
    17:00 +33°C° 0 mm 4 m/s 751 mmHg 57%
    18:00 +30°C° 0 mm 4 m/s 751 mmHg 65%
    19:00 +28°C° 0 mm 4 m/s 752 mmHg 72%
    20:00 +28°C° 0 mm 4 m/s 752 mmHg 75%
    21:00 +27°C° 0 mm 3 m/s 752 mmHg 78%
    22:00 +27°C° 0 mm 3 m/s 753 mmHg 82%
    23:00 +27°C° 0 mm 3 m/s 753 mmHg 84%

    22 Ianuarie, Duminică

    Timp Temperatura Precipitaţii Vânt Presiune Umiditate
    00:00 +26°C° 0 mm 3 m/s 752 mmHg 85%
    01:00 +26°C° 0 mm 3 m/s 752 mmHg 87%
    02:00 +26°C° 0 mm 3 m/s 752 mmHg 89%
    03:00 +25°C° 0 mm 3 m/s 752 mmHg 91%
    04:00 +25°C° 0 mm 3 m/s 752 mmHg 93%
    05:00 +25°C° 0 mm 2 m/s 753 mmHg 91%
    06:00 +26°C° 0 mm 2 m/s 753 mmHg 88%
    07:00 +26°C° 0 mm 2 m/s 754 mmHg 85%
    08:00 +28°C° 0 mm 1 m/s 754 mmHg 78%
    09:00 +29°C° 0 mm 1 m/s 754 mmHg 70%
    10:00 +31°C° 0 mm 1 m/s 754 mmHg 63%
    11:00 +31°C° 0 mm 2 m/s 754 mmHg 60%
    12:00 +32°C° 0 mm 2 m/s 753 mmHg 56%
    13:00 +34°C° 0 mm 3 m/s 753 mmHg 53%
    14:00 +34°C° 0 mm 3 m/s 752 mmHg 51%
    15:00 +35°C° 0 mm 4 m/s 752 mmHg 49%
    16:00 +35°C° 0 mm 5 m/s 751 mmHg 47%
    17:00 +33°C° 0 mm 5 m/s 751 mmHg 55%
    18:00 +32°C° 0 mm 5 m/s 752 mmHg 63%
    19:00 +29°C° 0 mm 5 m/s 752 mmHg 71%
    20:00 +28°C° 0 mm 5 m/s 752 mmHg 72%
    21:00 +28°C° 0 mm 4 m/s 753 mmHg 74%
    22:00 +28°C° 0 mm 4 m/s 753 mmHg 76%
    23:00 +28°C° 0 mm 3 m/s 753 mmHg 77%
    Arată mai mult